Notices

Please take our survey and provide feedback: https://eccc.sondage-survey.ca/f/LanguageSelection.aspx?s=442ca660-fcf1-47c0-95a9-59707d6fd709

Please note that for the Engineering Climate Datasets, IDF dataset is available through this link.  Intensity-Duration-Frequency (IDF) Files: Includes the latest version of short-duration rainfall Intensity-Duration-Frequency (IDF) statistics in the form of tables and graphs with accompanying documentation for various locations across Canada.  Current IDF files can be accessed through our station finder application or downloaded for each province and territory across Canada.  In addition, historical versions of IDF files are also available for download.  Updates of IDF files are provided approximately every two years depending on the availability of data.   Thank you for your patience as we enhance our systems.

Hourly Data Report for March 20, 2012

HALIFAX STANFIELD INT'L A
NOVA SCOTIA

44°52'48.060" N
63°30'00.050" W
145.40 m
8202250
71395
YHZ

Download Data

Hourly Data (March 2012)
Hourly Data Report for March 20, 2012
TIME
LST
Temp Definition
°C
Dew Point Definition
°C
Rel Hum Definition
%
Precip. Amount Definition
mm

Wind Dir Definition
10's deg

Wind Spd Definition
km/h
Visibility Definition
km
Stn Press Definition
kPa
Hmdx Definition


Wind Chill Definition


Weather Definition


00:00 -1.5 -3.5 86   19 11 24.1 101.00   -5 Mainly Clear
01:00 -0.7 -2.8 86   18 15 24.1 100.99   -5 Mainly Clear
02:00 -0.8 -2.7 87   18 7 24.1 100.96   -3 Mainly Clear
03:00 -1.6 -2.7 92   21 9 24.1 100.93   -5 Mainly Clear
04:00 -0.1 -1.4 91   21 7 24.1 100.85   -3 Mainly Clear
05:00 0.6 -0.8 90   19 9 24.1 100.83     Mostly Cloudy
06:00 1.3 0.0 91   20 24 24.1 100.74     Mostly Cloudy
07:00 1.6 0.5 92   20 19 24.1 100.70     Mainly Clear
08:00 3.8 1.8 87   21 28 24.1 100.69     Mainly Clear
09:00 5.9 2.8 80   22 26 24.1 100.66     Mainly Clear
10:00 9.0 4.1 71   24 15 24.1 100.66     Mostly Cloudy
11:00 10.9 4.5 65   25 11 24.1 100.58     Mostly Cloudy
12:00 13.6 5.4 58   26 17 24.1 100.49     Mainly Clear
13:00 16.5 6.5 52   21 17 24.1 100.37     Mostly Cloudy
14:00 18.6 7.7 49   20 19 24.1 100.22     Cloudy
15:00 20.0 8.9 49   24 19 24.1 100.13     Cloudy
16:00 20.2 9.2 49   23 20 24.1 100.08     Cloudy
17:00 19.7 9.2 51   23 19 24.1 100.04     Cloudy
18:00 17.7 9.1 57   25 17 24.1 100.04     Cloudy
19:00 16.4 9.2 62   27 17 24.1 100.04     Cloudy
20:00 15.7 9.1 65   29 26 24.1 100.13     Cloudy
21:00 13.7 8.3 70   29 11 24.1 100.17     Clear
22:00 13.5 8.1 70   32 13 24.1 100.19     Clear
23:00 12.3 7.5 72   31 20 24.1 100.21     Clear

Notes on Data Quality.

Legend

  • E = Estimated
  • M = Missing
  • NA = Not Available*
  • [empty] = Indicates an unobserved value
Date modified: